AFR26AP LFMN-LFPG

Flight info

Callsign AFR26AP
Flight time 1h 13m
Altitude 37000
Route OKTET UM733 GIPNO UT26 LOGNI DCT MOKIP DCT ARFOZ UN854 TINIL
Aircraft A320/M-SDE2E3FGIJ1RWY/HB1

Departure

Time 2026-05-06 12:41
Airport Nice-Côte d'Azur Airport (LFMN)

Arrival

Time 2026-05-06 13:54
Airport Charles de Gaulle International Airport (LFPG)
Time Latitude Longitude Altitude Speed Heading
2026-05-06 12:30 43.66433 7.21326 22 ft 0 kts 350°
2026-05-06 12:34 43.66428 7.21327 24 ft 2 kts 350°
2026-05-06 12:34 43.66413 7.21330 21 ft 2 kts 351°
2026-05-06 12:35 43.66397 7.21333 21 ft 2 kts 353°
2026-05-06 12:35 43.66381 7.21336 21 ft 2 kts 355°
2026-05-06 12:35 43.66364 7.21337 21 ft 2 kts
2026-05-06 12:35 43.66348 7.21336 21 ft 2 kts 30°
2026-05-06 12:36 43.66340 7.21323 21 ft 1 kts 81°
2026-05-06 12:36 43.66339 7.21321 21 ft 0 kts 79°
2026-05-06 12:36 43.66340 7.21322 21 ft 1 kts 79°
2026-05-06 12:37 43.66351 7.21413 21 ft 14 kts 79°
2026-05-06 12:37 43.66364 7.21532 21 ft 13 kts 115°
2026-05-06 12:37 43.66330 7.21657 21 ft 10 kts 60°
2026-05-06 12:37 43.66381 7.21728 21 ft 14 kts 45°
2026-05-06 12:38 43.66447 7.21820 21 ft 15 kts 46°
2026-05-06 12:38 43.66542 7.21956 21 ft 24 kts 48°
2026-05-06 12:38 43.66520 7.22072 21 ft 14 kts 135°
2026-05-06 12:38 43.66435 7.22187 22 ft 18 kts 136°
2026-05-06 12:39 43.66382 7.22339 21 ft 18 kts 63°
2026-05-06 12:39 43.66457 7.22467 21 ft 17 kts 50°
2026-05-06 12:39 43.66538 7.22583 21 ft 20 kts 45°
2026-05-06 12:39 43.66564 7.22745 21 ft 18 kts 112°
2026-05-06 12:40 43.66504 7.22768 22 ft 7 kts 230°
2026-05-06 12:40 43.66412 7.22640 22 ft 51 kts 224°
2026-05-06 12:40 43.65943 7.22006 32 ft 133 kts 221°
2026-05-06 12:40 43.65185 7.21003 478 ft 164 kts 223°
2026-05-06 12:41 43.64313 7.19861 1281 ft 182 kts 221°
2026-05-06 12:41 43.63354 7.18576 1798 ft 204 kts 224°
2026-05-06 12:41 43.62296 7.17103 2285 ft 228 kts 226°
2026-05-06 12:41 43.61085 7.15582 3004 ft 242 kts 212°
2026-05-06 12:42 43.59409 7.15030 3804 ft 263 kts 179°
2026-05-06 12:42 43.57632 7.15830 4737 ft 276 kts 157°
2026-05-06 12:42 43.56026 7.17336 5660 ft 286 kts 136°
2026-05-06 12:42 43.55078 7.19771 6573 ft 296 kts 104°
2026-05-06 12:43 43.54758 7.22590 7479 ft 298 kts 101°
2026-05-06 12:43 43.54338 7.25362 8384 ft 301 kts 105°
2026-05-06 12:43 43.53875 7.28234 9266 ft 307 kts 100°
2026-05-06 12:43 43.53845 7.31163 10101 ft 314 kts 84°
2026-05-06 12:44 43.54377 7.34131 10650 ft 330 kts 71°
2026-05-06 12:44 43.55171 7.37218 10940 ft 354 kts 70°
2026-05-06 12:44 43.56053 7.40506 11185 ft 377 kts 70°
2026-05-06 12:44 43.57112 7.43923 11315 ft 400 kts 61°
2026-05-06 12:45 43.58778 7.47100 11487 ft 418 kts 45°
2026-05-06 12:45 43.61053 7.49616 11973 ft 422 kts 28°
2026-05-06 12:45 43.66669 7.51567 13106 ft 421 kts 353°
2026-05-06 12:46 43.69519 7.50790 13692 ft 417 kts 336°
2026-05-06 12:46 43.72074 7.48947 14181 ft 413 kts 320°
2026-05-06 12:46 43.74133 7.46228 14699 ft 408 kts 304°
2026-05-06 12:46 43.75554 7.42870 15218 ft 403 kts 288°
2026-05-06 12:47 43.76263 7.39156 15773 ft 399 kts 274°
2026-05-06 12:47 43.76518 7.35334 16347 ft 400 kts 273°
2026-05-06 12:47 43.77037 7.31535 16929 ft 405 kts 282°
2026-05-06 12:47 43.78035 7.27857 17490 ft 413 kts 291°
2026-05-06 12:48 43.79541 7.24433 18033 ft 422 kts 301°
2026-05-06 12:48 43.81527 7.21377 18490 ft 432 kts 311°
2026-05-06 12:48 43.83930 7.18790 18918 ft 442 kts 318°
2026-05-06 12:48 43.86461 7.16358 19302 ft 444 kts 319°
2026-05-06 12:49 43.89000 7.13893 19709 ft 447 kts 318°
2026-05-06 12:49 43.91551 7.11401 20107 ft 450 kts 318°
2026-05-06 12:49 43.94117 7.08886 20464 ft 453 kts 318°
2026-05-06 12:49 43.96699 7.06353 20854 ft 456 kts 317°
2026-05-06 12:50 43.99302 7.03804 21200 ft 459 kts 317°
2026-05-06 12:50 44.01921 7.01241 21567 ft 462 kts 317°
2026-05-06 12:50 44.04561 6.98656 21881 ft 465 kts 317°
2026-05-06 12:50 44.07211 6.96058 22203 ft 468 kts 317°
2026-05-06 12:51 44.09877 6.93442 22546 ft 470 kts 317°
2026-05-06 12:51 44.12559 6.90805 22898 ft 473 kts 317°
2026-05-06 12:51 44.15257 6.88153 23187 ft 476 kts 317°
2026-05-06 12:51 44.17997 6.85525 23502 ft 481 kts 317°
2026-05-06 12:52 44.20781 6.82927 23868 ft 483 kts 317°
2026-05-06 12:52 44.23590 6.80338 24186 ft 484 kts 318°
2026-05-06 12:52 44.26394 6.77760 24624 ft 482 kts 318°
2026-05-06 12:52 44.29186 6.75181 25049 ft 481 kts 318°
2026-05-06 12:53 44.31965 6.72593 25449 ft 480 kts 317°
2026-05-06 12:53 44.34732 6.69993 25893 ft 478 kts 317°
2026-05-06 12:53 44.37489 6.67390 26315 ft 478 kts 317°
2026-05-06 12:53 44.40241 6.64783 26703 ft 478 kts 317°
2026-05-06 12:54 44.42993 6.62172 27146 ft 478 kts 317°
2026-05-06 12:54 44.45741 6.59562 27546 ft 478 kts 317°
2026-05-06 12:54 44.48500 6.56947 27870 ft 479 kts 317°
2026-05-06 12:54 44.51260 6.54331 28308 ft 478 kts 317°
2026-05-06 12:55 44.54013 6.51727 28750 ft 478 kts 317°
2026-05-06 12:55 44.56769 6.49122 29161 ft 478 kts 317°
2026-05-06 12:55 44.59487 6.46552 29610 ft 478 kts 317°
2026-05-06 12:55 44.62240 6.43941 30006 ft 476 kts 318°
2026-05-06 12:56 44.64979 6.41337 30315 ft 475 kts 317°
2026-05-06 12:56 44.67713 6.38727 30672 ft 475 kts 317°
2026-05-06 12:56 44.70442 6.36116 31030 ft 474 kts 318°
2026-05-06 12:56 44.73166 6.33511 31364 ft 474 kts 318°
2026-05-06 12:57 44.75892 6.30904 31707 ft 473 kts 318°
2026-05-06 12:57 44.78612 6.28298 32096 ft 472 kts 318°
2026-05-06 12:57 44.81326 6.25697 32424 ft 472 kts 318°
2026-05-06 12:57 44.84037 6.23099 32749 ft 471 kts 318°
2026-05-06 12:58 44.86747 6.20499 33101 ft 471 kts 318°
2026-05-06 12:58 44.89454 6.17897 33374 ft 471 kts 318°
2026-05-06 12:58 44.92168 6.15286 33629 ft 472 kts 318°
2026-05-06 12:58 44.94877 6.12672 33946 ft 472 kts 318°
2026-05-06 12:59 44.97587 6.10054 34242 ft 471 kts 319°
2026-05-06 12:59 45.00284 6.07451 34554 ft 469 kts 319°
2026-05-06 12:59 45.02977 6.04849 34879 ft 469 kts 319°
2026-05-06 12:59 45.05666 6.02239 35142 ft 469 kts 319°
2026-05-06 13:00 45.08354 5.99628 35338 ft 469 kts 320°
2026-05-06 13:00 45.11011 5.97046 35538 ft 469 kts 320°
2026-05-06 13:00 45.13701 5.94430 35814 ft 469 kts 320°
2026-05-06 13:00 45.16388 5.91817 36105 ft 468 kts 320°
2026-05-06 13:01 45.19070 5.89204 36398 ft 468 kts 320°
2026-05-06 13:01 45.21745 5.86591 36630 ft 467 kts 320°
2026-05-06 13:01 45.24425 5.83975 36870 ft 467 kts 320°
2026-05-06 13:02 45.29805 5.78722 36956 ft 471 kts 321°
2026-05-06 13:02 45.35198 5.73444 36949 ft 471 kts 320°
2026-05-06 13:03 45.40580 5.68155 36943 ft 470 kts 320°
2026-05-06 13:03 45.45963 5.62849 36945 ft 470 kts 321°
2026-05-06 13:04 45.51339 5.57526 36946 ft 471 kts 321°
2026-05-06 13:04 45.56832 5.52419 36947 ft 475 kts 329°
2026-05-06 13:05 45.62894 5.48558 36939 ft 478 kts 332°
2026-05-06 13:05 45.68982 5.44729 36963 ft 478 kts 333°
2026-05-06 13:06 45.75059 5.40870 36961 ft 478 kts 332°
2026-05-06 13:06 45.81130 5.36999 36961 ft 478 kts 332°
2026-05-06 13:07 45.87208 5.33118 36970 ft 478 kts 333°
2026-05-06 13:07 45.93291 5.29237 36962 ft 479 kts 333°
2026-05-06 13:08 45.99337 5.25371 36953 ft 479 kts 333°
2026-05-06 13:08 46.05422 5.21471 36954 ft 479 kts 333°
2026-05-06 13:09 46.11507 5.17557 36951 ft 479 kts 333°
2026-05-06 13:09 46.17597 5.13630 36961 ft 479 kts 333°
2026-05-06 13:10 46.23814 5.10174 36943 ft 482 kts 344°
2026-05-06 13:10 46.30503 5.09298 36936 ft 485 kts 358°
2026-05-06 13:11 46.37251 5.09352 36923 ft 485 kts 358°
2026-05-06 13:11 46.43998 5.09368 36919 ft 485 kts 358°
2026-05-06 13:12 46.50746 5.09382 36921 ft 485 kts 358°
2026-05-06 13:12 46.57495 5.09411 36914 ft 485 kts 358°
2026-05-06 13:13 46.64245 5.09438 36905 ft 485 kts 358°
2026-05-06 13:13 46.70994 5.09467 36899 ft 485 kts 358°
2026-05-06 13:14 46.77744 5.09507 36900 ft 485 kts 358°
2026-05-06 13:14 46.84490 5.09541 36898 ft 485 kts 358°
2026-05-06 13:15 46.90100 5.09584 36906 ft 485 kts 359°
2026-05-06 13:15 46.96851 5.09599 36899 ft 485 kts 358°
2026-05-06 13:16 47.03607 5.09601 36895 ft 486 kts 358°
2026-05-06 13:16 47.10368 5.09636 36899 ft 486 kts 359°
2026-05-06 13:17 47.17132 5.09680 36910 ft 486 kts 359°
2026-05-06 13:17 47.23898 5.09713 36918 ft 486 kts 359°
2026-05-06 13:18 47.30659 5.09739 36913 ft 486 kts 359°
2026-05-06 13:18 47.37418 5.09759 36913 ft 486 kts 359°
2026-05-06 13:19 47.44172 5.09788 36608 ft 485 kts 359°
2026-05-06 13:19 47.47536 5.09806 35499 ft 484 kts 359°
2026-05-06 13:19 47.50907 5.09823 34255 ft 485 kts 359°
2026-05-06 13:19 47.54266 5.09551 32948 ft 482 kts 351°
2026-05-06 13:20 47.57498 5.08465 31931 ft 472 kts 342°
2026-05-06 13:20 47.60524 5.06681 30862 ft 466 kts 333°
2026-05-06 13:20 47.63284 5.04251 29812 ft 459 kts 325°
2026-05-06 13:20 47.65759 5.01289 28551 ft 457 kts 320°
2026-05-06 13:21 47.68161 4.98250 27650 ft 447 kts 320°
2026-05-06 13:21 47.70485 4.95310 27170 ft 432 kts 320°
2026-05-06 13:21 47.72761 4.92437 26902 ft 429 kts 320°
2026-05-06 13:21 47.75029 4.89577 26646 ft 425 kts 320°
2026-05-06 13:22 47.77273 4.86744 26393 ft 422 kts 320°
2026-05-06 13:22 47.79506 4.83923 26131 ft 420 kts 320°
2026-05-06 13:22 47.81725 4.81112 25875 ft 418 kts 320°
2026-05-06 13:22 47.83933 4.78309 25622 ft 416 kts 320°
2026-05-06 13:23 47.86133 4.75512 25348 ft 415 kts 320°
2026-05-06 13:23 47.88289 4.72767 24923 ft 412 kts 320°
2026-05-06 13:23 47.90482 4.69968 24474 ft 409 kts 320°
2026-05-06 13:23 47.92631 4.67219 24030 ft 406 kts 320°
2026-05-06 13:24 47.94743 4.64515 23620 ft 404 kts 320°
2026-05-06 13:24 47.96865 4.61800 23152 ft 401 kts 320°
2026-05-06 13:24 47.98980 4.59096 22723 ft 399 kts 320°
2026-05-06 13:24 48.01077 4.56411 22301 ft 395 kts 320°
2026-05-06 13:25 48.03150 4.53750 21880 ft 391 kts 320°
2026-05-06 13:25 48.05210 4.51104 21470 ft 390 kts 320°
2026-05-06 13:25 48.07263 4.48460 21051 ft 387 kts 319°
2026-05-06 13:25 48.09293 4.45836 20647 ft 385 kts 319°
2026-05-06 13:26 48.11319 4.43219 20240 ft 384 kts 319°
2026-05-06 13:26 48.13334 4.40621 19831 ft 381 kts 319°
2026-05-06 13:26 48.15328 4.38048 19410 ft 376 kts 319°
2026-05-06 13:26 48.17300 4.35499 19029 ft 373 kts 319°
2026-05-06 13:27 48.19262 4.32961 18629 ft 371 kts 319°
2026-05-06 13:27 48.21202 4.30443 18238 ft 368 kts 319°
2026-05-06 13:27 48.23129 4.27934 17815 ft 365 kts 319°
2026-05-06 13:27 48.25040 4.25446 17430 ft 361 kts 319°
2026-05-06 13:28 48.26822 4.22823 17049 ft 358 kts 310°
2026-05-06 13:28 48.28399 4.19954 16668 ft 355 kts 309°
2026-05-06 13:28 48.29964 4.17102 16298 ft 351 kts 309°
2026-05-06 13:28 48.31491 4.14318 16151 ft 340 kts 309°
2026-05-06 13:29 48.32968 4.11621 16022 ft 329 kts 309°
2026-05-06 13:29 48.34398 4.09010 15894 ft 319 kts 309°
2026-05-06 13:29 48.35790 4.06467 15655 ft 313 kts 309°
2026-05-06 13:29 48.37165 4.03955 15377 ft 309 kts 309°
2026-05-06 13:30 48.38527 4.01463 15095 ft 307 kts 309°
2026-05-06 13:30 48.39883 3.98982 14819 ft 306 kts 310°
2026-05-06 13:30 48.41234 3.96508 14547 ft 305 kts 310°
2026-05-06 13:30 48.42576 3.94047 14261 ft 303 kts 310°
2026-05-06 13:31 48.43907 3.91604 13990 ft 301 kts 310°
2026-05-06 13:31 48.45234 3.89166 13711 ft 300 kts 310°
2026-05-06 13:31 48.46552 3.86742 13413 ft 298 kts 310°
2026-05-06 13:31 48.47867 3.84321 13139 ft 298 kts 309°
2026-05-06 13:32 48.49174 3.81912 12868 ft 296 kts 309°
2026-05-06 13:32 48.50471 3.79510 12597 ft 295 kts 309°
2026-05-06 13:32 48.51759 3.77124 12331 ft 292 kts 309°
2026-05-06 13:32 48.53038 3.74757 12065 ft 290 kts 309°
2026-05-06 13:33 48.54254 3.72347 11814 ft 288 kts 303°
2026-05-06 13:33 48.55339 3.69823 11555 ft 286 kts 303°
2026-05-06 13:33 48.56420 3.67315 11305 ft 285 kts 303°
2026-05-06 13:33 48.57497 3.64810 11050 ft 283 kts 302°
2026-05-06 13:34 48.58568 3.62318 10806 ft 283 kts 302°
2026-05-06 13:34 48.59639 3.59833 10561 ft 282 kts 302°
2026-05-06 13:34 48.60706 3.57353 10317 ft 282 kts 302°
2026-05-06 13:34 48.61753 3.54908 10077 ft 280 kts 302°
2026-05-06 13:35 48.62810 3.52437 9840 ft 279 kts 302°
2026-05-06 13:35 48.63862 3.49978 9714 ft 278 kts 301°
2026-05-06 13:35 48.64906 3.47537 9580 ft 276 kts 301°
2026-05-06 13:35 48.65946 3.45104 9445 ft 275 kts 302°
2026-05-06 13:36 48.66981 3.42687 9307 ft 273 kts 302°
2026-05-06 13:36 48.68014 3.40268 9180 ft 274 kts 302°
2026-05-06 13:36 48.69048 3.37844 9036 ft 273 kts 302°
2026-05-06 13:36 48.70078 3.35429 8910 ft 272 kts 302°
2026-05-06 13:37 48.71103 3.33024 8768 ft 271 kts 302°
2026-05-06 13:37 48.72122 3.30628 8648 ft 271 kts 302°
2026-05-06 13:37 48.73138 3.28226 8524 ft 271 kts 302°
2026-05-06 13:37 48.74158 3.25811 8384 ft 272 kts 303°
2026-05-06 13:38 48.75175 3.23409 8263 ft 269 kts 303°
2026-05-06 13:38 48.76182 3.21032 8146 ft 268 kts 303°
2026-05-06 13:38 48.77188 3.18656 7998 ft 266 kts 303°
2026-05-06 13:38 48.78194 3.16286 7880 ft 270 kts 303°
2026-05-06 13:39 48.79212 3.13876 7749 ft 271 kts 303°
2026-05-06 13:39 48.80227 3.11464 7623 ft 269 kts 303°
2026-05-06 13:39 48.81235 3.09072 7497 ft 270 kts 303°
2026-05-06 13:39 48.82245 3.06670 7371 ft 270 kts 304°
2026-05-06 13:40 48.83246 3.04286 7236 ft 267 kts 304°
2026-05-06 13:40 48.84242 3.01927 7108 ft 266 kts 306°
2026-05-06 13:40 48.85425 2.99794 6983 ft 264 kts 314°
2026-05-06 13:40 48.86676 2.97740 6857 ft 265 kts 314°
2026-05-06 13:41 48.87925 2.95672 6738 ft 266 kts 314°
2026-05-06 13:41 48.89173 2.93601 6613 ft 266 kts 314°
2026-05-06 13:41 48.90419 2.91531 6492 ft 265 kts 314°
2026-05-06 13:41 48.91659 2.89471 6370 ft 264 kts 314°
2026-05-06 13:42 48.92731 2.87211 6242 ft 265 kts 300°
2026-05-06 13:42 48.93378 2.84582 6109 ft 268 kts 285°
2026-05-06 13:42 48.93551 2.81756 5987 ft 271 kts 269°
2026-05-06 13:42 48.93399 2.78896 5858 ft 271 kts 268°
2026-05-06 13:43 48.93246 2.76046 5730 ft 271 kts 268°
2026-05-06 13:43 48.93095 2.73195 5606 ft 269 kts 268°
2026-05-06 13:43 48.92947 2.70366 5465 ft 269 kts 268°
2026-05-06 13:43 48.92800 2.67538 5342 ft 268 kts 269°
2026-05-06 13:44 48.92653 2.64719 5206 ft 267 kts 268°
2026-05-06 13:44 48.92506 2.61898 5072 ft 267 kts 268°
2026-05-06 13:44 48.92355 2.59090 4958 ft 266 kts 268°
2026-05-06 13:44 48.92202 2.56294 4916 ft 266 kts 268°
2026-05-06 13:45 48.92048 2.53492 4943 ft 265 kts 268°
2026-05-06 13:45 48.91741 2.47901 4946 ft 265 kts 269°
2026-05-06 13:45 48.91590 2.45142 4937 ft 265 kts 268°
2026-05-06 13:46 48.91434 2.42329 4554 ft 263 kts 268°
2026-05-06 13:46 48.91280 2.39570 4170 ft 261 kts 268°
2026-05-06 13:46 48.91127 2.36833 3740 ft 259 kts 268°
2026-05-06 13:46 48.90974 2.34109 3315 ft 257 kts 268°
2026-05-06 13:47 48.90823 2.31444 3045 ft 255 kts 268°
2026-05-06 13:47 48.90670 2.28727 3026 ft 256 kts 267°
2026-05-06 13:47 48.90595 2.26028 3026 ft 254 kts 280°
2026-05-06 13:47 48.91217 2.23613 3003 ft 239 kts 310°
2026-05-06 13:48 48.92468 2.22184 3023 ft 218 kts 341°
2026-05-06 13:48 48.93903 2.22104 3027 ft 205 kts 14°
2026-05-06 13:48 48.95199 2.22851 3025 ft 194 kts 22°
2026-05-06 13:48 48.96253 2.24042 3024 ft 191 kts 51°
2026-05-06 13:49 48.96893 2.25767 3059 ft 182 kts 60°
2026-05-06 13:49 48.97394 2.27415 3043 ft 166 kts 61°
2026-05-06 13:49 48.97708 2.29111 3057 ft 169 kts 77°
2026-05-06 13:49 48.97857 2.30926 3041 ft 174 kts 80°
2026-05-06 13:50 48.97975 2.32757 3033 ft 174 kts 81°
2026-05-06 13:50 48.98082 2.34574 3037 ft 175 kts 81°
2026-05-06 13:50 48.98187 2.36422 2961 ft 175 kts 81°
2026-05-06 13:50 48.98289 2.38264 2776 ft 175 kts 81°
2026-05-06 13:51 48.98392 2.40108 2556 ft 174 kts 82°
2026-05-06 13:51 48.98493 2.41942 2319 ft 174 kts 81°
2026-05-06 13:51 48.98591 2.43723 2079 ft 162 kts 82°
2026-05-06 13:51 48.98678 2.45344 1871 ft 148 kts 83°
2026-05-06 13:52 48.98763 2.46879 1682 ft 143 kts 81°
2026-05-06 13:52 48.98846 2.48379 1484 ft 142 kts 83°
2026-05-06 13:52 48.98928 2.49871 1267 ft 140 kts 82°
2026-05-06 13:52 48.99010 2.51350 1071 ft 141 kts 83°
2026-05-06 13:53 48.99087 2.52840 894 ft 141 kts 83°
2026-05-06 13:53 48.99162 2.54319 661 ft 138 kts 81°
2026-05-06 13:53 48.99250 2.55787 500 ft 140 kts 81°
2026-05-06 13:53 48.99327 2.57240 361 ft 131 kts 81°
2026-05-06 13:54 48.99399 2.58413 360 ft 87 kts 88°
2026-05-06 13:54 48.99430 2.59071 351 ft 38 kts 80°
2026-05-06 13:54 48.99479 2.59295 356 ft 21 kts 66°
2026-05-06 13:54 48.99555 2.59535 356 ft 27 kts 65°
2026-05-06 13:55 48.99689 2.59679 354 ft 26 kts 356°
2026-05-06 13:55 48.99870 2.59663 354 ft 26 kts 356°
2026-05-06 13:55 49.00051 2.59644 360 ft 26 kts 354°
2026-05-06 13:55 49.00171 2.59522 360 ft 23 kts 251°
2026-05-06 13:56 49.00078 2.59439 362 ft 13 kts 245°
2026-05-06 13:56 49.00061 2.59254 359 ft 21 kts 266°
2026-05-06 13:56 49.00053 2.59027 354 ft 23 kts 268°
2026-05-06 13:56 49.00035 2.58755 354 ft 27 kts 264°
2026-05-06 13:57 49.00019 2.58447 354 ft 27 kts 267°
2026-05-06 13:57 49.00085 2.58317 354 ft 16 kts
2026-05-06 13:57 49.00206 2.58300 354 ft 20 kts 354°
2026-05-06 13:57 49.00288 2.58379 359 ft 10 kts 91°
2026-05-06 13:58 49.00289 2.58409 354 ft 0 kts 86°
2026-05-06 13:58 49.00289 2.58408 354 ft 0 kts 86°